Hourly Weather Rudka

Today, 15 April, Thursday

Time Temperature Precipitation Wind Pressure Humidity
00:00 0°C° 0.4 mm 5 mps 751 mmHg 96%
01:00 -1°C° 0 mm 6 mps 751 mmHg 97%
02:00 0°C° 0.8 mm 5 mps 750 mmHg 97%
03:00 0°C° 0.8 mm 5 mps 750 mmHg 97%
04:00 0°C° 0.8 mm 5 mps 750 mmHg 97%
05:00 0°C° 0.3 mm 5 mps 750 mmHg 97%
06:00 0°C° 0.3 mm 5 mps 750 mmHg 96%
07:00 +1°C° 0.3 mm 5 mps 750 mmHg 96%
08:00 +1°C° 0.4 mm 5 mps 750 mmHg 96%
09:00 +1°C° 0.4 mm 5 mps 750 mmHg 96%
10:00 +1°C° 0.4 mm 5 mps 750 mmHg 96%
11:00 +1°C° 0.3 mm 5 mps 750 mmHg 95%
12:00 +2°C° 0.3 mm 5 mps 750 mmHg 94%
13:00 +2°C° 0.3 mm 5 mps 750 mmHg 93%
14:00 +3°C° 0.1 mm 4 mps 750 mmHg 92%
15:00 +3°C° 0.1 mm 4 mps 750 mmHg 92%
16:00 +4°C° 0.1 mm 4 mps 750 mmHg 91%
17:00 +4°C° 0 mm 4 mps 751 mmHg 91%
18:00 +3°C° 0 mm 4 mps 751 mmHg 91%
19:00 +2°C° 0 mm 5 mps 751 mmHg 91%
20:00 +3°C° 0.2 mm 4 mps 751 mmHg 92%
21:00 +3°C° 0.2 mm 4 mps 751 mmHg 94%
22:00 +3°C° 0.2 mm 4 mps 750 mmHg 95%
23:00 +3°C° 0.4 mm 4 mps 750 mmHg 95%

Tomorrow, 16 April, Friday

Time Temperature Precipitation Wind Pressure Humidity
00:00 +3°C° 0.4 mm 4 mps 750 mmHg 95%
01:00 +1°C° 0.4 mm 4 mps 750 mmHg 95%
02:00 +1°C° 0 mm 4 mps 749 mmHg 96%
03:00 +1°C° 0 mm 4 mps 749 mmHg 96%
04:00 +1°C° 0 mm 4 mps 749 mmHg 96%
05:00 +1°C° 0.1 mm 4 mps 749 mmHg 95%
06:00 +1°C° 0.1 mm 4 mps 749 mmHg 95%
07:00 +1°C° 0.1 mm 5 mps 749 mmHg 94%
08:00 +3°C° 0.1 mm 4 mps 749 mmHg 94%
09:00 +3°C° 0.1 mm 4 mps 749 mmHg 93%
10:00 +3°C° 0.1 mm 4 mps 749 mmHg 93%
11:00 +3°C° 0.2 mm 4 mps 749 mmHg 94%
12:00 +3°C° 0.2 mm 4 mps 749 mmHg 94%
13:00 +3°C° 0.2 mm 4 mps 749 mmHg 95%
14:00 +4°C° 0 mm 3 mps 749 mmHg 95%
15:00 +4°C° 0 mm 3 mps 749 mmHg 95%
16:00 +5°C° 0 mm 3 mps 750 mmHg 95%
17:00 +5°C° 0 mm 3 mps 750 mmHg 96%
18:00 +5°C° 0 mm 3 mps 750 mmHg 96%
19:00 +5°C° 0 mm 3 mps 750 mmHg 97%
20:00 +5°C° 0 mm 3 mps 750 mmHg 97%
21:00 +5°C° 0 mm 3 mps 750 mmHg 97%
22:00 +5°C° 0 mm 3 mps 750 mmHg 97%
23:00 +5°C° 0 mm 3 mps 750 mmHg 97%

Day after tomorrow, 17 April, Saturday

Time Temperature Precipitation Wind Pressure Humidity
00:00 +5°C° 0 mm 3 mps 750 mmHg 97%
01:00 +5°C° 0 mm 3 mps 750 mmHg 97%
02:00 +5°C° 0.1 mm 3 mps 750 mmHg 97%
03:00 +5°C° 0.1 mm 3 mps 750 mmHg 97%
04:00 +5°C° 0.1 mm 3 mps 750 mmHg 98%
05:00 +7°C° 0.6 mm 3 mps 751 mmHg 97%
06:00 +7°C° 0.6 mm 3 mps 751 mmHg 97%
07:00 +7°C° 0.6 mm 3 mps 751 mmHg 97%
08:00 +8°C° 0 mm 3 mps 751 mmHg 92%
09:00 +9°C° 0 mm 3 mps 751 mmHg 88%
10:00 +9°C° 0 mm 3 mps 751 mmHg 83%
11:00 +10°C° 0.1 mm 3 mps 751 mmHg 79%
12:00 +11°C° 0.1 mm 4 mps 752 mmHg 75%
13:00 +11°C° 0.1 mm 4 mps 752 mmHg 71%
14:00 +12°C° 0.1 mm 4 mps 752 mmHg 71%
15:00 +12°C° 0.1 mm 4 mps 752 mmHg 71%
16:00 +12°C° 0.1 mm 4 mps 752 mmHg 70%
17:00 +10°C° 0.1 mm 3 mps 752 mmHg 76%
18:00 +9°C° 0.1 mm 3 mps 752 mmHg 82%
19:00 +7°C° 0.1 mm 2 mps 752 mmHg 88%
20:00 +7°C° 0 mm 2 mps 753 mmHg 89%
21:00 +7°C° 0 mm 2 mps 753 mmHg 90%
22:00 +6°C° 0 mm 2 mps 753 mmHg 91%
23:00 +6°C° 0 mm 2 mps 753 mmHg 91%

18 April, Sunday

Time Temperature Precipitation Wind Pressure Humidity
00:00 +6°C° 0 mm 2 mps 753 mmHg 92%
01:00 +6°C° 0 mm 2 mps 753 mmHg 92%
02:00 +6°C° 0 mm 2 mps 752 mmHg 93%
03:00 +6°C° 0 mm 2 mps 752 mmHg 94%
04:00 +7°C° 0 mm 2 mps 752 mmHg 95%
05:00 +7°C° 0.3 mm 2 mps 752 mmHg 95%
06:00 +7°C° 0.3 mm 2 mps 752 mmHg 96%
07:00 +7°C° 0.3 mm 2 mps 752 mmHg 96%
08:00 +8°C° 0.5 mm 2 mps 752 mmHg 95%
09:00 +8°C° 0.5 mm 2 mps 752 mmHg 94%
10:00 +8°C° 0.5 mm 2 mps 752 mmHg 92%
11:00 +9°C° 0.2 mm 2 mps 752 mmHg 91%
12:00 +9°C° 0.2 mm 2 mps 752 mmHg 90%
13:00 +11°C° 0.2 mm 1 mps 752 mmHg 89%
14:00 +10°C° 0.1 mm 2 mps 752 mmHg 86%
15:00 +12°C° 0.1 mm 2 mps 752 mmHg 84%
16:00 +13°C° 0.1 mm 2 mps 752 mmHg 81%
17:00 +12°C° 0.3 mm 2 mps 752 mmHg 85%
18:00 +10°C° 0.3 mm 2 mps 752 mmHg 89%
19:00 +9°C° 0.3 mm 2 mps 752 mmHg 93%
20:00 +9°C° 0 mm 2 mps 752 mmHg 93%
21:00 +9°C° 0 mm 2 mps 752 mmHg 94%
22:00 +8°C° 0 mm 2 mps 753 mmHg 94%
23:00 +8°C° 0 mm 2 mps 753 mmHg 95%

19 April, Monday

Time Temperature Precipitation Wind Pressure Humidity
00:00 +8°C° 0 mm 2 mps 753 mmHg 95%
01:00 +8°C° 0 mm 2 mps 753 mmHg 95%
02:00 +8°C° 0 mm 2 mps 753 mmHg 96%
03:00 +8°C° 0 mm 2 mps 753 mmHg 96%
04:00 +8°C° 0 mm 3 mps 753 mmHg 96%
05:00 +8°C° 0 mm 3 mps 753 mmHg 93%
06:00 +9°C° 0 mm 3 mps 753 mmHg 89%
07:00 +10°C° 0 mm 3 mps 753 mmHg 86%
08:00 +11°C° 0.2 mm 4 mps 753 mmHg 78%
09:00 +12°C° 0.2 mm 4 mps 753 mmHg 71%
10:00 +13°C° 0.2 mm 5 mps 753 mmHg 63%
11:00 +13°C° 0.1 mm 5 mps 753 mmHg 59%
12:00 +14°C° 0.1 mm 5 mps 753 mmHg 55%
13:00 +14°C° 0.1 mm 5 mps 752 mmHg 52%
14:00 +14°C° 0 mm 5 mps 752 mmHg 52%
15:00 +14°C° 0 mm 4 mps 752 mmHg 53%
16:00 +13°C° 0 mm 4 mps 752 mmHg 54%
17:00 +12°C° 0 mm 4 mps 752 mmHg 60%
18:00 +11°C° 0 mm 3 mps 752 mmHg 66%
19:00 +10°C° 0 mm 3 mps 752 mmHg 72%
20:00 +9°C° 0 mm 3 mps 752 mmHg 74%
21:00 +9°C° 0 mm 2 mps 752 mmHg 77%
22:00 +8°C° 0 mm 2 mps 752 mmHg 79%
23:00 +8°C° 0 mm 2 mps 752 mmHg 81%

20 April, Tuesday

Time Temperature Precipitation Wind Pressure Humidity
00:00 +8°C° 0 mm 2 mps 752 mmHg 82%
01:00 +8°C° 0 mm 2 mps 752 mmHg 84%
02:00 +7°C° 0 mm 2 mps 752 mmHg 86%
03:00 +6°C° 0 mm 2 mps 752 mmHg 89%
04:00 +5°C° 0 mm 2 mps 752 mmHg 91%
05:00 +6°C° 0 mm 2 mps 752 mmHg 86%
06:00 +7°C° 0 mm 3 mps 751 mmHg 81%
07:00 +8°C° 0 mm 3 mps 751 mmHg 76%
08:00 +9°C° 0 mm 3 mps 751 mmHg 67%
09:00 +11°C° 0 mm 4 mps 751 mmHg 58%
10:00 +12°C° 0 mm 4 mps 751 mmHg 49%
11:00 +13°C° 0 mm 4 mps 751 mmHg 47%
12:00 +14°C° 0 mm 4 mps 750 mmHg 45%
13:00 +14°C° 0 mm 4 mps 750 mmHg 42%
14:00 +14°C° 0 mm 3 mps 750 mmHg 47%
15:00 +13°C° 0 mm 3 mps 750 mmHg 52%
16:00 +13°C° 0 mm 3 mps 749 mmHg 56%
17:00 +11°C° 0 mm 3 mps 750 mmHg 62%
18:00 +10°C° 0 mm 2 mps 750 mmHg 67%
19:00 +10°C° 0 mm 1 mps 750 mmHg 72%
20:00 +10°C° 0 mm 1 mps 750 mmHg 72%
21:00 +9°C° 0 mm 1 mps 749 mmHg 73%
22:00 +9°C° 0 mm 1 mps 749 mmHg 73%
23:00 +9°C° 0 mm 1 mps 749 mmHg 73%
Show more